Location: Corona
(40.7470°N, 73.8601°W)
Time: 22:59:36
(UTC+00:00)

USA 116 - Pass Details

Date: 22 September 2019
Orbit: 405 x 834 km, 97.9° (Epoch: 18 November)

Event Time Altitude Azimuth Distance (km) Brightness Sun altitude
Rises 23:15:34 0° 13° (NNE) 2,706 7.2 -5.1°
Reaches altitude 10° 23:17:48 10° 14° (NNE) 1,745 6.2 -5.5°
Maximum altitude 23:21:31 83° 100° (E) 482 3.4 -6.2°
Drops below altitude 10° 23:24:50 10° 191° (SSW) 1,557 6.1 -6.9°
Sets 23:26:44 0° 192° (SSW) 2,384 7.1 -7.2°
